Temp
11 11 10 10 10 10 10 10 10 11 11 11 11 11 11 11 11 11 11 10 10 10 10 11 11 11 11 11 11 11 10 10 9 9 9 8 8 8 8 7 7 6 6 6 5
10 10 10 10 10 10 10 10 10 10 10 10 10 10 11 11 11 10 10 10 10 10 10 10 10 11 11 11 11 10 10 10 9 9 8 8 8 8 8 7 7 7 6 6 5
10 10 10 10 10 10 10 10 10 10 10 10 10 10 10 11 10 10 10 10 10 10 10 10 10 10 10 10 10 10 10 9 9 9 8 8 8 8 7 6 6 6 5 5 5
10 10 10 10 10 10 10 10 10 10 10 10 10 10 10 10 10 10 10 10 10 10 10 10 10 10 10 10 10 10 9 9 9 8 8 8 8 8 7 6 6 5 4 4 4
9 9 10 10 10 10 10 10 10 10 10 10 10 10 10 10 10 10 10 10 9 9 9 9 10 10 10 10 10 10 9 9 9 8 8 8 8 7 7 7 6 5 4 4 3
9 9 9 10 10 10 10 10 10 9 9 9 9 9 10 10 9 9 9 9 9 9 9 9 9 9 9 9 9 9 9 9 8 8 8 8 8 7 7 7 6 5 4 4 3
9 9 9 9 10 10 10 10 9 9 9 9 9 9 9 9 9 9 9 8 8 8 8 8 8 9 9 9 9 9 8 8 8 7 7 7 8 8 7 6 5 5 5 4 3
8 9 9 9 9 9 9 9 9 9 9 9 9 9 9 9 8 8 8 8 8 8 8 8 8 8 8 8 8 8 7 7 7 7 7 6 7 6 6 6 5 5 5 4 3
8 8 9 9 9 9 9 9 9 9 9 9 9 8 8 8 8 8 8 8 8 8 8 7 7 8 8 8 7 6 6 6 6 6 6 5 7 5 6 6 5 5 5 4 3
8 8 8 8 9 9 9 9 9 9 8 8 8 8 8 8 8 8 8 8 8 8 8 7 7 8 7 7 5 5 5 6 5 5 6 6 8 7 5 7 6 5 4 3 2
7 8 8 8 8 9 9 8 8 8 8 8 8 8 7 7 8 8 8 7 8 8 7 7 7 7 6 6 5 5 5 5 5 5 6 6 8 8 7 7 6 5 4 3 2
7 7 8 8 8 9 9 9 8 8 8 8 8 8 8 8 7 7 7 7 8 8 7 7 7 6 6 5 5 5 5 4 5 5 4 6 9 8 8 7 6 4 3 2 1
7 7 8 8 8 8 9 9 8 7 7 7 7 7 8 8 7 7 7 7 7 7 7 7 6 6 5 5 5 5 4 3 2 5 5 4 7 6 6 6 5 4 3 2 -0
7 7 8 8 8 8 9 9 8 7 7 7 7 7 7 7 7 7 7 7 7 7 7 6 6 6 5 5 4 4 3 2 2 2 1 2 2 5 5 4 4 4 2 1 -0
7 7 8 8 8 8 8 8 8 7 7 7 7 7 7 7 7 7 7 7 7 6 6 6 6 5 5 4 3 2 2 2 2 2 1 2 0 4 4 4 4 3 2 1 0
7 8 8 8 8 9 8 8 8 7 6 7 7 7 7 7 7 6 7 6 6 6 6 6 5 5 4 3 3 2 2 2 1 1 -3 1 2 3 3 3 2 2 1 1 0
8 8 8 8 8 8 8 8 7 7 6 6 6 6 6 6 6 6 6 6 5 5 4 4 5 4 3 3 3 1 1 -1 -2 -3 -2 1 -0 4 3 2 2 1 1 -0 -1
7 8 8 8 8 8 8 8 7 6 6 6 6 6 6 6 6 6 5 5 4 3 3 2 3 3 3 2 1 0 0 0 -4 -3 -3 -1 -1 4 3 2 1 -0 -1 -1 -2
7 7 8 8 8 8 8 8 7 7 6 6 6 6 5 5 5 5 4 4 3 2 1 1 2 3 2 2 0 -0 -0 -1 -2 -2 -5 -0 2 3 2 2 -0 -0 -2 -2 -2
7 7 7 7 8 8 8 7 7 6 6 6 5 5 4 4 4 3 3 3 2 1 1 -0 -1 2 2 1 0 -1 -1 -1 -2 -6 -5 -0 2 3 2 1 0 0 -2 -2 -2
7 7 7 7 7 7 7 7 6 6 5 5 5 4 3 3 3 2 2 2 2 1 -0 -1 -2 1 0 0 -0 -1 -1 -1 -2 -3 -8 -7 -1 3 2 1 1 -1 -2 -3 -4
7 7 7 7 7 7 6 6 6 5 5 4 4 3 2 2 2 1 1 1 0 -0 -1 -1 -3 -2 0 -0 -1 -1 -1 -2 -3 -4 -4 -5 -4 2 2 0 -1 -3 -3 -4 -3
6 6 6 6 6 6 5 5 5 4 4 3 3 2 2 1 1 1 1 0 -0 -1 -2 -3 -3 -4 -0 -1 -1 -1 -1 -3 -4 -4 -5 -6 -3 1 0 -1 -3 -3 -4 -4 -3
6 5 5 5 5 4 4 4 3 3 3 2 1 1 1 0 0 -0 -1 -1 -1 -1 -2 -3 -3 -3 -2 -1 -3 -4 -3 -5 -6 -6 -5 -5 -1 -1 -1 -3 -4 -3 -4 -3 -4
5 4 4 4 4 3 3 3 2 2 1 1 0 0 -0 -1 -1 -1 -1 -1 -1 -1 -2 -3 -4 -4 -2 -1 -2 -2 -0 -4 -7 -3 -7 -0 -3 0 -2 -4 -4 -5 -4 -4 -4
4 3 3 3 3 3 2 2 1 1 0 0 -0 -0 -1 -1 -1 -1 -2 -2 -3 -2 -2 -3 -5 -5 -4 -2 -3 -2 -1 -3 -3 -3 -4 -2 -2 -2 -4 -5 -5 -4 -4 -5 -5
2 2 2 2 2 2 1 1 -0 -1 -1 -1 -1 -1 -1 -1 -1 -2 -2 -2 -3 -3 -3 -4 -5 -6 -5 -4 -5 -3 -1 -2 -2 -2 -3 -3 -3 -4 -4 -5 -5 -4 -5 -5 -5
Height
3166 3166 3165 3164 3164 3163 3163 3162 3161 3160 3160 3159 3158 3157 3156 3156 3155 3153 3152 3151 3150 3148 3148 3147 3146 3145 3145 3145 3144 3144 3145 3144 3144 3144 3143 3142 3141 3141 3139 3138 3136 3135 3132 3130 3125
3168 3167 3166 3165 3165 3165 3164 3164 3163 3162 3161 3160 3160 3158 3157 3156 3155 3154 3153 3151 3149 3148 3148 3147 3146 3145 3144 3144 3144 3144 3144 3144 3144 3143 3142 3140 3139 3138 3137 3135 3134 3132 3129 3127 3124
3169 3169 3168 3167 3167 3166 3166 3165 3165 3164 3163 3162 3161 3159 3158 3156 3156 3154 3152 3150 3149 3148 3147 3146 3145 3144 3144 3143 3143 3143 3143 3142 3142 3141 3140 3138 3137 3135 3133 3132 3131 3128 3124 3121 3119
3171 3170 3169 3169 3168 3168 3167 3166 3166 3165 3165 3164 3162 3161 3159 3158 3159 3154 3152 3150 3149 3147 3146 3145 3144 3143 3143 3142 3142 3142 3142 3141 3140 3139 3138 3136 3134 3132 3130 3130 3128 3125 3123 3120 3117
3172 3171 3171 3170 3170 3169 3168 3167 3167 3166 3165 3165 3163 3162 3161 3159 3158 3155 3152 3150 3148 3146 3145 3144 3143 3142 3141 3141 3141 3140 3140 3139 3138 3137 3135 3133 3131 3129 3128 3126 3124 3122 3120 3118 3115
3174 3173 3172 3172 3171 3170 3168 3168 3168 3167 3166 3165 3164 3162 3161 3160 3157 3154 3152 3149 3147 3145 3144 3143 3142 3141 3141 3140 3140 3139 3138 3138 3136 3134 3132 3129 3128 3126 3125 3122 3120 3118 3117 3115 3112
3175 3174 3173 3172 3171 3170 3169 3168 3168 3167 3167 3166 3165 3163 3162 3161 3157 3154 3151 3148 3146 3144 3143 3142 3141 3141 3141 3139 3139 3138 3137 3136 3133 3132 3129 3126 3126 3123 3121 3118 3117 3116 3114 3113 3110
3176 3175 3174 3173 3172 3171 3170 3169 3168 3168 3167 3166 3165 3164 3162 3159 3156 3154 3151 3148 3146 3144 3142 3142 3142 3141 3140 3140 3138 3137 3136 3133 3131 3129 3127 3124 3119 3119 3116 3115 3113 3112 3111 3110 3108
3176 3175 3174 3173 3172 3172 3171 3170 3169 3168 3167 3167 3166 3164 3163 3161 3158 3154 3151 3148 3146 3143 3142 3142 3143 3141 3141 3139 3138 3136 3136 3134 3130 3125 3123 3120 3114 3114 3109 3110 3110 3110 3109 3108 3105
3177 3176 3175 3174 3173 3172 3171 3170 3169 3168 3168 3167 3166 3166 3164 3162 3158 3155 3152 3149 3147 3144 3144 3143 3142 3141 3140 3139 3138 3136 3134 3131 3127 3121 3117 3115 3107 3108 3104 3104 3105 3106 3106 3105 3103
3177 3176 3175 3174 3173 3171 3171 3170 3171 3171 3169 3168 3167 3165 3164 3162 3160 3157 3153 3151 3148 3145 3143 3142 3143 3141 3139 3138 3138 3136 3133 3128 3125 3118 3114 3110 3103 3102 3100 3100 3100 3101 3102 3101 3100
3177 3176 3175 3174 3172 3171 3170 3169 3169 3171 3169 3168 3167 3166 3164 3162 3161 3157 3155 3153 3149 3146 3144 3144 3142 3141 3140 3138 3137 3133 3129 3126 3120 3117 3110 3105 3100 3098 3094 3097 3097 3098 3099 3099 3098
3178 3177 3175 3174 3173 3172 3170 3169 3168 3168 3169 3169 3168 3166 3165 3163 3160 3158 3156 3153 3150 3147 3144 3143 3143 3141 3139 3137 3135 3132 3128 3123 3118 3112 3108 3102 3098 3098 3097 3096 3094 3094 3095 3095 3093
3179 3177 3176 3175 3176 3172 3171 3169 3168 3167 3169 3171 3168 3166 3165 3162 3161 3158 3155 3154 3151 3148 3145 3144 3142 3139 3137 3136 3133 3128 3125 3120 3114 3110 3107 3106 3101 3095 3095 3096 3095 3094 3093 3092 3089
3179 3178 3177 3175 3174 3173 3172 3170 3169 3170 3171 3172 3169 3167 3164 3163 3162 3159 3155 3153 3151 3149 3149 3145 3140 3137 3136 3134 3131 3128 3122 3116 3111 3107 3105 3104 3103 3092 3093 3093 3093 3092 3090 3088 3084
3179 3178 3177 3176 3174 3173 3171 3170 3170 3172 3169 3170 3168 3166 3164 3162 3160 3158 3155 3153 3151 3149 3146 3143 3139 3137 3134 3131 3127 3125 3119 3112 3108 3107 3106 3104 3105 3094 3091 3091 3089 3088 3087 3084 3080
3179 3178 3177 3176 3175 3173 3172 3171 3172 3169 3173 3171 3168 3165 3163 3161 3159 3157 3155 3152 3150 3147 3143 3140 3138 3135 3133 3130 3127 3124 3117 3112 3111 3107 3105 3103 3102 3092 3092 3089 3090 3088 3084 3081 3076
3179 3178 3178 3176 3175 3174 3172 3172 3171 3172 3171 3170 3168 3165 3164 3161 3159 3157 3154 3151 3149 3147 3144 3140 3135 3135 3132 3128 3126 3121 3120 3119 3123 3113 3104 3100 3095 3089 3089 3088 3087 3086 3082 3078 3073
3179 3178 3177 3176 3175 3174 3174 3172 3171 3171 3170 3168 3166 3164 3163 3161 3160 3156 3153 3151 3149 3147 3148 3142 3137 3132 3130 3126 3125 3120 3121 3121 3116 3110 3107 3094 3091 3089 3084 3083 3081 3078 3074 3071 3067
3178 3177 3177 3175 3174 3173 3173 3172 3170 3169 3168 3167 3165 3164 3162 3160 3159 3156 3152 3151 3149 3147 3145 3143 3136 3130 3128 3126 3122 3121 3121 3118 3117 3117 3109 3089 3086 3083 3081 3079 3075 3072 3070 3067 3063
3177 3176 3175 3174 3173 3172 3171 3170 3169 3168 3167 3167 3164 3162 3161 3159 3157 3155 3153 3151 3147 3145 3143 3140 3137 3132 3125 3123 3118 3118 3116 3116 3116 3114 3112 3102 3084 3081 3079 3077 3074 3070 3063 3058 3055
3174 3174 3173 3172 3173 3170 3169 3168 3167 3165 3165 3163 3162 3160 3158 3157 3154 3152 3151 3149 3146 3143 3140 3137 3132 3126 3123 3117 3115 3114 3113 3114 3114 3109 3106 3101 3070 3075 3073 3073 3070 3062 3056 3052 3048
3172 3171 3170 3170 3169 3167 3167 3166 3165 3163 3162 3161 3160 3158 3157 3156 3155 3150 3147 3146 3142 3140 3137 3134 3128 3123 3117 3115 3113 3111 3109 3108 3109 3106 3096 3099 3070 3069 3069 3066 3062 3053 3048 3044 3036
3170 3169 3167 3166 3165 3165 3163 3163 3162 3161 3159 3158 3158 3157 3155 3153 3152 3147 3144 3141 3139 3135 3133 3128 3124 3123 3119 3114 3109 3106 3100 3100 3101 3098 3086 3074 3060 3060 3063 3058 3051 3046 3040 3033 3025
3167 3165 3164 3164 3163 3162 3161 3161 3159 3158 3157 3156 3154 3153 3151 3149 3145 3142 3139 3136 3134 3131 3128 3123 3115 3112 3109 3104 3101 3095 3090 3084 3084 3082 3079 3061 3062 3053 3056 3049 3043 3036 3030 3023 3016
3163 3162 3160 3159 3158 3158 3157 3156 3155 3154 3153 3151 3150 3149 3147 3144 3142 3137 3134 3132 3127 3124 3119 3115 3107 3100 3096 3095 3092 3086 3081 3079 3077 3075 3065 3062 3050 3057 3049 3044 3037 3032 3026 3017 3009
3157 3156 3155 3154 3153 3153 3152 3151 3151 3150 3148 3146 3145 3143 3140 3138 3134 3130 3128 3125 3121 3118 3114 3108 3104 3099 3089 3088 3086 3077 3073 3072 3068 3066 3063 3058 3055 3047 3039 3038 3033 3025 3017 3008 2998
Wind_Speed
8 7 6 6 7 8 8 10 11 11 10 11 12 9 7 7 11 10 11 9 8 7 7 6 5 5 4 3 2 3 3 3 4 5 6 8 10 9 12 14 14 14 15 17 19
8 8 7 7 7 7 8 8 11 11 10 10 11 12 12 7 7 12 11 9 8 7 6 5 6 5 4 3 3 3 4 4 5 7 8 10 11 13 14 14 14 16 17 17 18
8 8 8 7 6 7 8 6 8 10 11 11 11 10 13 12 5 13 13 12 11 9 8 7 7 6 4 3 3 4 5 6 7 9 10 12 13 15 17 15 15 18 20 23 23
8 8 7 6 5 4 7 6 6 8 9 10 12 11 11 14 9 13 14 13 12 11 10 8 7 5 4 3 4 4 5 7 9 10 13 16 16 18 18 16 16 16 17 20 23
9 9 8 7 6 5 4 4 6 6 8 9 10 11 11 12 13 14 14 13 12 10 9 7 6 5 4 4 4 5 5 7 9 11 16 19 19 19 18 15 17 16 17 21 23
9 8 8 8 8 7 6 2 4 6 7 9 9 11 12 15 15 15 15 13 12 10 8 6 5 4 4 4 4 6 8 9 10 14 18 19 18 19 16 16 17 17 18 22 26
8 8 8 8 7 7 7 5 4 6 7 7 8 9 12 15 15 16 15 14 12 10 8 5 3 4 4 4 6 7 10 11 12 18 18 22 15 19 16 17 16 17 19 22 26
7 7 7 8 8 8 7 6 6 6 6 7 8 8 13 17 19 17 15 14 12 9 6 1 3 6 7 5 6 8 7 17 20 21 21 24 19 24 20 17 17 17 19 22 26
7 6 7 7 7 7 7 6 7 5 4 7 10 7 13 16 17 18 15 14 16 10 3 2 3 7 8 8 6 11 17 19 20 25 27 25 31 27 24 18 17 16 18 19 24
7 6 6 6 7 8 7 7 7 3 3 6 11 6 12 15 19 18 17 15 15 11 6 1 4 7 9 11 6 13 20 23 22 31 29 29 35 24 20 17 17 13 15 16 22
7 7 7 7 8 7 7 6 3 2 5 7 10 11 13 12 18 16 16 15 17 12 7 3 5 11 13 14 15 15 21 22 29 25 33 32 30 20 17 18 20 11 11 16 22
8 8 7 7 7 8 8 6 2 1 3 7 11 14 12 11 14 17 16 14 16 18 10 6 7 11 14 14 14 18 23 24 22 33 35 30 21 11 14 7 12 9 10 17 21
8 8 8 8 9 9 9 7 4 2 1 6 12 12 12 13 13 18 17 15 15 17 13 7 10 12 15 18 16 22 22 24 31 29 29 23 12 7 11 15 12 10 13 17 20
7 8 8 8 7 8 10 8 7 2 2 9 11 13 13 13 12 16 17 15 13 16 18 7 16 14 15 18 19 27 23 30 29 29 10 19 7 10 10 13 9 14 15 16 21
7 7 8 8 9 9 9 8 6 3 1 9 12 14 13 13 13 15 18 12 12 14 20 15 17 15 14 19 22 22 29 26 26 18 16 5 6 5 13 11 9 16 20 23 28
7 8 8 9 9 9 8 7 4 2 2 6 11 15 9 13 13 15 19 13 11 15 22 16 16 13 18 17 24 19 23 18 9 7 3 2 5 8 3 10 10 17 21 26 29
7 6 7 8 9 9 8 7 2 4 8 7 13 14 9 15 13 16 17 12 16 17 28 19 16 10 15 25 24 29 18 6 5 2 4 3 14 6 12 10 13 21 24 29 32
5 5 5 8 9 10 10 6 3 5 6 10 13 12 9 15 12 17 18 14 15 16 22 19 15 18 27 22 19 13 9 4 3 3 5 17 8 3 9 4 13 22 25 30 29
5 5 6 8 10 10 9 4 3 7 9 11 12 9 10 12 15 17 17 9 14 14 18 11 13 30 18 23 27 10 5 6 7 12 4 5 7 17 6 10 14 28 37 37 35
7 8 8 9 11 10 8 4 5 7 8 9 7 6 10 14 12 15 12 10 19 14 24 17 19 14 20 27 14 13 9 6 4 5 6 7 10 15 12 13 19 31 45 40 40
10 10 9 12 11 10 7 6 8 10 9 8 10 10 9 13 15 15 6 19 10 26 23 25 9 22 24 23 24 17 8 3 6 7 3 5 6 16 21 29 23 41 48 43 34
11 12 12 11 11 10 8 9 11 10 11 11 10 9 11 13 15 13 13 16 25 28 26 16 16 18 32 24 16 7 12 11 6 5 10 10 22 10 6 17 35 47 47 38 47
13 13 12 11 10 10 10 12 13 12 12 11 9 13 14 13 13 20 18 27 27 25 23 23 11 14 13 6 5 20 25 30 23 24 23 7 16 20 28 41 43 49 44 47 54
15 11 14 14 11 10 14 14 11 13 13 12 13 14 13 19 20 16 26 20 26 29 29 27 23 21 22 30 30 39 42 34 22 18 23 34 50 45 39 43 45 50 48 56 52
17 15 15 13 16 17 16 14 15 14 15 14 17 18 17 25 26 24 26 31 32 33 29 29 30 31 33 33 35 32 26 35 32 33 30 45 45 41 37 45 45 48 53 55 55
18 17 18 19 19 18 17 17 20 19 19 22 23 16 24 27 26 32 30 28 30 32 34 38 30 32 39 31 21 25 38 34 29 27 38 37 43 34 43 37 43 48 54 53 53
21 21 22 22 22 22 22 19 19 19 22 20 23 25 27 31 31 30 29 31 31 31 34 37 31 23 20 22 20 26 2 24 33 19 19 31 34 44 43 38 50 54 51 53 60
Wind_Direction
49 50 53 63 80 64 51 49 45 42 43 42 40 23 351 12 20 13 11 359 351 348 344 337 332 334 341 342 328 277 241 242 258 268 298 302 302 298 300 302 310 322 321 330 331
42 43 48 74 75 57 48 49 46 43 43 40 32 26 21 5 359 12 8 2 0 350 335 326 327 333 335 329 291 279 273 284 289 294 293 299 295 303 303 296 307 317 324 333 335
38 40 47 67 59 50 42 51 46 42 43 36 28 20 20 15 357 2 359 355 351 344 332 322 323 327 328 305 298 303 287 302 297 303 295 297 299 301 297 297 310 325 332 335 336
40 41 46 50 46 43 42 50 46 36 30 26 28 21 13 11 8 356 353 348 341 335 329 315 314 320 320 306 308 303 295 300 302 303 313 296 298 300 302 295 306 318 330 336 336
41 41 41 38 32 22 16 35 30 15 18 18 17 15 14 7 3 354 346 337 333 328 322 315 315 322 323 301 304 294 309 322 309 319 313 309 291 297 305 297 299 308 327 335 336
45 44 40 36 34 29 23 25 11 20 13 4 4 9 4 354 360 352 345 338 331 327 327 327 322 330 310 298 305 321 287 314 314 317 324 320 294 298 307 299 293 304 318 328 336
45 42 38 34 30 26 28 35 6 352 356 6 3 7 2 7 2 357 357 353 347 340 336 332 352 345 340 320 327 319 315 300 312 321 325 324 323 297 303 302 296 305 313 323 336
32 32 31 29 27 21 21 20 11 4 12 17 8 6 10 11 7 5 7 7 1 351 341 2 21 13 12 353 331 334 338 331 321 320 320 324 327 323 293 296 300 304 311 318 329
15 17 20 20 19 18 14 3 349 349 11 25 16 13 19 15 15 15 9 11 10 10 32 117 37 18 10 359 358 354 335 330 321 315 316 318 317 324 301 280 298 299 308 316 329
0 360 3 4 5 4 360 357 3 32 33 13 16 19 14 17 16 14 19 19 14 16 24 51 347 345 355 356 353 336 339 329 327 318 321 322 316 329 295 275 293 292 304 319 328
354 355 359 2 3 1 359 353 343 71 39 29 20 20 11 8 11 13 18 20 18 12 12 356 351 355 352 346 340 328 333 327 331 324 320 322 319 332 292 281 298 268 297 330 333
7 11 15 19 18 15 9 2 25 134 6 27 17 14 6 2 9 16 11 10 15 19 10 344 347 348 346 342 338 336 336 328 325 318 320 324 323 326 331 315 275 256 307 328 333
26 28 31 31 25 20 16 17 7 224 35 22 10 6 7 7 5 10 13 18 17 14 4 353 341 330 334 342 335 340 337 327 319 322 315 324 324 306 314 303 251 261 303 325 339
31 30 28 26 23 22 22 23 25 113 201 357 2 0 360 5 357 1 5 9 8 9 12 349 337 324 325 332 338 336 332 324 318 319 315 320 286 311 327 327 251 271 292 318 338
23 22 21 20 15 12 15 17 34 81 117 349 354 353 356 3 356 354 357 358 359 3 2 344 339 330 332 333 336 329 330 320 311 306 304 328 302 325 325 326 288 278 284 306 327
8 7 7 9 10 6 4 6 19 10 344 348 347 347 356 357 355 353 353 352 351 350 353 348 338 332 330 332 333 335 331 316 312 305 319 167 344 306 345 319 312 316 300 307 315
356 8 26 22 18 14 10 6 25 43 338 338 341 344 347 352 349 350 350 343 358 353 349 347 342 332 327 330 332 337 348 328 343 336 234 315 310 241 341 350 335 328 318 313 318
12 22 18 15 11 14 7 9 62 353 342 337 338 338 341 345 345 342 343 343 347 348 349 344 329 331 326 330 331 340 9 31 293 297 302 286 237 266 324 9 359 354 338 321 319
354 353 349 349 352 352 355 5 29 346 333 332 335 331 335 333 337 338 340 330 339 340 357 334 312 319 326 331 329 331 345 338 277 270 304 234 266 295 235 307 341 352 347 335 322
323 322 325 333 338 340 346 347 333 327 323 322 326 309 317 323 333 337 328 326 328 337 338 327 308 313 319 327 328 331 315 311 330 336 303 276 253 268 250 308 290 323 332 323 316
311 314 315 322 326 328 327 319 318 320 316 318 312 307 308 323 327 332 302 323 326 327 327 326 305 309 317 315 305 308 298 275 291 243 211 305 243 293 282 290 297 319 321 321 319
309 311 312 316 320 315 311 313 315 309 309 308 307 303 311 319 321 320 315 318 316 319 323 319 304 293 312 303 291 284 289 274 249 259 231 262 277 304 318 315 320 314 321 319 325
303 307 307 311 307 305 303 313 310 305 306 301 295 306 310 320 330 319 310 316 314 316 315 314 299 307 306 302 270 308 298 295 282 269 249 237 265 304 304 315 317 317 315 324 329
300 299 299 302 295 293 303 303 297 300 297 290 297 311 308 316 321 301 302 306 312 312 313 310 295 280 271 292 292 292 293 286 262 258 263 247 285 304 320 322 316 317 321 326 329
296 297 294 288 289 296 299 295 299 298 294 292 300 313 305 317 314 313 306 306 307 311 307 304 292 293 297 301 300 298 293 283 266 280 258 293 287 311 324 316 318 316 322 326 329
290 289 287 289 292 293 292 295 296 294 287 290 299 301 305 307 298 300 299 301 301 306 304 300 296 296 299 309 297 293 291 287 286 285 277 295 301 322 312 311 311 315 324 325 324
284 285 286 283 284 286 289 293 294 295 295 297 299 298 303 305 295 297 296 299 298 299 292 289 291 294 294 296 301 293 27 312 307 304 303 300 312 312 305 305 313 323 325 327 328